HST 1 20580U 90037B 25128.78338933 .00007115 00000-0 26961-3 0 9997 2 20580 28.4677 311.9280 0002659 22.0567 338.0141 15.24890481726927 ISS (ZARYA) 1 25544U 98067A 25129.18790686 .00009438 00000-0 17663-3 0 9994 2 25544 51.6342 140.2502 0002302 92.7015 267.4237 15.49425405509114 CXO 1 25867U 99040B 25129.76795735 .00000570 00000-0 00000+0 0 9999 2 25867 48.6962 131.5006 8481473 308.9436 359.8594 0.37812153 26954